Location: Del Amo
(33.8464°N, 118.2104°W)
Time: 19:03:11
(UTC+00:00)

S-56A Canister/Altair - Pass Details

Date: 20 September 2024
Orbit: 636 x 2487 km, 38.9° (Epoch: 14 October)

Event Time Altitude Azimuth Distance (km) Brightness Sun altitude
Rises 09:17:49 0° 270° (W) 4,836 - -49.2°
Reaches altitude 10° 09:23:29 10° 245° (WSW) 4,266 - -48.5°
Maximum altitude 09:27:56 13° 222° (SW) 4,306 - -47.9°
Drops below altitude 10° 09:32:51 10° 200° (SSW) 4,793 - -47.2°
Sets 09:40:24 0° 177° (S) 6,057 - -46.2°
